Date String (YYYY-MM-DD hh:mm:ss) UTC,Instrument flags,absolute air pressure of the measurement (hPa),sample flow rate (lpm),inlet stack bypass flow (lpm),air temperature of the measurement (°C),ambient temperature measured by the external sensor (°C),aerosol sample conditioner tube jacket temperature (°C),OPC LED temperature (°C),internal box temperature (°C),relative humidity of the measurement (%),span deviation,mass concentration of particles derived from Lorenz-Mie calculation of OPC scattering (μg/m³),mass concentration of particles derived from Lorenz-Mie calculation of OPC scattering (μg/m³),mass concentration of particles derived from Lorenz-Mie calculation of OPC scattering (μg/m³)
DateTimeUTC,F1_M11,P_M11,Q1_M11,Q2_M11,T1_M11,T2_M11,T3_M11,T4_M11,T5_M11,U1_M11,ZSPAN_M11,X2_M11,X0_M11,X1_M11
2023-07-17 02:00:00,SystemResetWarning,0833.2,5.00,000.00,028.8,027.2,000.0,037.1,030.5,28.3,0000.1,0008.91,0018.84,0008.03
2023-07-17 02:01:00,SystemResetWarning,0833.2,5.01,000.00,028.9,027.5,000.0,037.1,030.6,28.6,0000.4,0008.92,0018.85,0008.04
2023-07-17 02:02:00,SystemResetWarning,0833.2,5.00,000.00,028.9,027.5,000.0,037.1,030.7,28.5,0000.4,0009.00,0018.64,0008.07
2023-07-17 02:03:00,SystemResetWarning,0833.2,4.98,000.00,028.9,026.0,000.0,037.0,030.4,28.3,0000.5,0009.03,0019.67,0008.09
2023-07-17 02:04:00,SystemResetWarning,0833.2,5.01,000.00,028.8,024.9,000.0,036.9,030.1,28.2,0000.5,0009.06,0020.05,0008.10
2023-07-17 02:05:00,SystemResetWarning,0833.2,5.01,000.00,028.7,024.7,000.0,036.9,030.0,28.0,0000.2,0009.09,0020.22,0008.10
2023-07-17 02:06:00,SystemResetWarning,0833.2,5.01,000.00,028.6,025.1,000.0,036.9,029.9,27.6,0000.2,0009.12,0019.98,0008.11
2023-07-17 02:07:00,SystemResetWarning,0833.2,4.99,000.00,028.6,025.6,000.0,037.0,030.0,26.9,0000.3,0009.11,0020.41,0008.11
2023-07-17 02:08:00,SystemResetWarning,0833.2,5.00,000.00,028.6,026.1,000.0,037.0,030.2,27.1,0000.8,0009.12,0020.58,0008.13
2023-07-17 02:09:00,SystemResetWarning,0833.2,5.01,000.00,028.7,026.5,000.0,037.0,030.3,27.2,0000.8,0009.16,0020.04,0008.15
2023-07-17 02:10:00,SystemResetWarning,0833.2,5.01,000.00,028.7,026.9,000.0,037.1,030.4,26.8,0000.8,0009.15,0019.11,0008.15
2023-07-17 02:11:00,SystemResetWarning,0833.3,4.99,000.00,028.8,027.3,000.0,037.1,030.5,26.6,0000.8,0009.13,0019.62,0008.14
2023-07-17 02:12:00,SystemResetWarning,0833.3,4.99,000.00,028.8,027.6,000.0,037.1,030.6,26.5,0000.6,0009.11,0020.40,0008.13
2023-07-17 02:13:00,SystemResetWarning,0833.2,5.00,000.00,028.9,027.8,000.0,037.2,030.7,26.6,0000.7,0009.04,0019.84,0008.12
2023-07-17 02:14:00,SystemResetWarning,0833.2,5.00,000.00,029.0,027.4,000.0,037.1,030.7,26.4,0000.8,0008.97,0017.89,0008.11
2023-07-17 02:15:00,SystemResetWarning,0833.2,5.00,000.00,028.9,025.7,000.0,037.0,030.4,26.2,0001.3,0008.93,0017.71,0008.11
2023-07-17 02:16:00,SystemResetWarning,0833.2,5.00,000.00,028.8,024.8,000.0,036.9,030.2,26.3,0001.7,0008.91,0017.79,0008.13
2023-07-17 02:17:00,SystemResetWarning,0833.2,5.01,000.00,028.7,024.8,000.0,036.9,030.0,26.3,0001.8,0008.94,0018.57,0008.15
2023-07-17 02:18:00,SystemResetWarning,0833.2,5.01,000.00,028.7,025.2,000.0,037.0,030.0,26.4,0001.7,0008.97,0018.15,0008.17
2023-07-17 02:19:00,SystemResetWarning,0833.2,5.00,000.00,028.7,025.7,000.0,037.0,030.1,26.4,0001.5,0008.98,0018.25,0008.20
2023-07-17 02:20:00,SystemResetWarning,0833.2,5.00,000.00,028.7,026.2,000.0,037.0,030.2,26.6,0001.4,0008.93,0017.96,0008.20
2023-07-17 02:21:00,SystemResetWarning,0833.2,5.01,000.00,028.7,026.6,000.0,037.1,030.4,28.4,0001.3,0008.91,0017.86,0008.21
2023-07-17 02:22:00,SystemResetWarning,0833.2,5.00,000.00,028.8,027.0,000.0,037.1,030.5,27.7,0001.2,0008.93,0018.45,0008.21
2023-07-17 02:23:00,SystemResetWarning,0833.2,4.99,000.00,028.8,027.4,000.0,037.1,030.6,26.9,0001.0,0008.93,0017.93,0008.22
2023-07-17 02:24:00,SystemResetWarning,0833.2,5.00,000.00,028.9,027.6,000.0,037.1,030.7,26.8,0000.9,0008.91,0018.20,0008.21
2023-07-17 02:25:00,SystemResetWarning,0833.3,5.00,000.00,028.9,027.8,000.0,037.2,030.7,26.7,0000.7,0008.98,0018.80,0008.21
2023-07-17 02:26:00,SystemResetWarning,0833.2,5.00,000.00,029.0,026.9,000.0,037.1,030.6,26.7,0000.3,0009.02,0019.18,0008.23
2023-07-17 02:27:00,SystemResetWarning,0833.2,5.00,000.00,028.9,025.2,000.0,037.0,030.2,26.8,0000.3,0009.02,0018.80,0008.25
2023-07-17 02:28:00,SystemResetWarning,0833.2,5.00,000.00,028.8,024.6,000.0,036.9,030.1,26.7,0000.3,0009.02,0017.96,0008.25
2023-07-17 02:29:00,SystemResetWarning,0833.2,5.02,000.00,028.7,024.8,000.0,036.9,030.0,27.0,0000.4,0009.00,0017.55,0008.25
2023-07-17 02:30:00,SystemResetWarning,0833.2,5.00,000.00,028.7,025.3,000.0,037.0,030.0,26.6,0000.2,0009.02,0017.13,0008.24
2023-07-17 02:31:00,SystemResetWarning,0833.2,4.99,000.00,028.7,025.8,000.0,037.0,030.1,26.9,0000.3,0009.07,0017.20,0008.26
2023-07-17 02:32:00,SystemResetWarning,0833.2,5.00,000.00,028.7,026.3,000.0,037.1,030.2,27.4,0000.3,0009.11,0017.87,0008.28
2023-07-17 02:33:00,SystemResetWarning,0833.2,5.01,000.00,028.7,026.7,000.0,037.1,030.3,27.9,0000.1,0009.11,0016.77,0008.30
2023-07-17 02:34:00,SystemResetWarning,0833.3,5.00,000.00,028.8,027.1,000.0,037.1,030.5,27.9,0000.0,0009.13,0016.41,0008.32
2023-07-17 02:35:00,SystemResetWarning,0833.3,4.99,000.00,028.8,027.4,000.0,037.1,030.5,27.9,-000.0,0009.18,0016.11,0008.34
2023-07-17 02:36:00,SystemResetWarning,0833.3,5.00,000.00,028.9,027.7,000.0,037.2,030.6,27.8,0000.1,0009.12,0015.48,0008.34
2023-07-17 02:37:00,SystemResetWarning,0833.2,4.99,000.00,028.9,027.1,000.0,037.1,030.6,28.0,0000.1,0009.12,0015.24,0008.33
2023-07-17 02:38:00,SystemResetWarning,0833.2,5.00,000.00,028.9,025.7,000.0,037.0,030.4,28.1,-000.2,0009.10,0015.41,0008.31
2023-07-17 02:39:00,SystemResetWarning,0833.2,5.01,000.00,028.8,025.4,000.0,037.0,030.3,27.6,-000.5,0009.10,0015.54,0008.33
2023-07-17 02:40:00,SystemResetWarning,0833.2,5.01,000.00,028.8,025.7,000.0,037.0,030.2,27.5,-000.5,0009.10,0015.82,0008.30
2023-07-17 02:41:00,SystemResetWarning,0833.2,4.99,000.00,028.8,026.1,000.0,037.1,030.2,27.4,-000.3,0009.07,0015.63,0008.28
2023-07-17 02:42:00,SystemResetWarning,0833.2,5.00,000.00,028.8,026.5,000.0,037.1,030.3,27.6,-000.3,0009.05,0015.41,0008.25
2023-07-17 02:43:00,SystemResetWarning,0833.2,5.00,000.00,028.8,026.9,000.0,037.1,030.5,27.1,-000.4,0009.02,0014.71,0008.23
2023-07-17 02:44:00,SystemResetWarning,0833.3,5.00,000.00,028.9,027.2,000.0,037.2,030.6,26.9,-000.1,0009.04,0014.36,0008.25
2023-07-17 02:45:00,SystemResetWarning,0833.3,5.00,000.00,028.9,027.5,000.0,037.2,030.6,26.4,0000.4,0009.01,0014.27,0008.25
2023-07-17 02:46:00,SystemResetWarning,0833.3,4.99,000.00,029.0,027.6,000.0,037.2,030.7,26.3,0000.3,0008.99,0014.21,0008.25
2023-07-17 02:47:00,SystemResetWarning,0833.3,4.99,000.00,029.0,026.5,000.0,037.1,030.6,26.6,-000.1,0009.02,0014.28,0008.27
2023-07-17 02:48:00,SystemResetWarning,0833.2,5.00,000.00,028.9,025.5,000.0,037.0,030.4,26.3,0000.1,0008.97,0013.67,0008.29
2023-07-17 02:49:00,SystemResetWarning,0833.2,5.01,000.00,028.8,025.5,000.0,037.0,030.2,26.2,0000.5,0008.98,0013.34,0008.31
2023-07-17 02:50:00,SystemResetWarning,0833.2,5.01,000.00,028.8,025.8,000.0,037.1,030.2,26.3,0000.5,0008.97,0013.95,0008.30
2023-07-17 02:51:00,SystemResetWarning,0833.2,4.99,000.00,028.8,026.3,000.0,037.1,030.3,26.4,0000.6,0009.01,0013.97,0008.33
2023-07-17 02:52:00,SystemResetWarning,0833.2,5.00,000.00,028.8,026.7,000.0,037.2,030.4,26.4,0000.4,0009.03,0014.18,0008.36
2023-07-17 02:53:00,SystemResetWarning,0833.2,5.00,000.00,028.9,027.0,000.0,037.2,030.5,26.4,0000.3,0009.00,0014.18,0008.37
2023-07-17 02:54:00,SystemResetWarning,0833.3,4.99,000.00,028.9,027.3,000.0,037.2,030.6,26.4,0000.4,0008.98,0014.50,0008.37
2023-07-17 02:55:00,SystemResetWarning,0833.3,5.00,000.00,029.0,027.6,000.0,037.3,030.7,26.5,0000.4,0008.95,0015.05,0008.35
2023-07-17 02:56:00,SystemResetWarning,0833.3,4.99,000.00,029.0,027.4,000.0,037.3,030.7,26.8,0000.2,0008.96,0015.19,0008.34
2023-07-17 02:57:00,SystemResetWarning,0833.3,5.00,000.00,029.0,025.6,000.0,037.1,030.5,26.7,0000.4,0009.00,0015.70,0008.35
2023-07-17 02:58:00,SystemResetWarning,0833.2,5.00,000.00,028.9,024.5,000.0,037.0,030.2,26.7,0000.5,0009.00,0016.28,0008.35
2023-07-17 02:59:00,SystemResetWarning,0833.2,5.01,000.00,028.8,024.5,000.0,037.0,030.0,26.7,0000.6,0009.02,0017.15,0008.34
